User: anonymous   Login
Location: *
(37.5724°S, 58.0067°E)
Time: 02:28:24
(UTC+00:00)
Language:

Okean-O - Orbit

View from above orbital plane
View from above orbital plane
View from above satellite
View from above satellite

Ground track
Ground track

The orbit data is extracted from the following two-line orbital elements,

1 25860U 99039A   20339.31866945  .00000102  00000-0  22146-4 0  9992
2 25860  98.2027   1.1797 0001763  78.7132 281.4276 14.76695618150673
Epoch (UTC): 04 December 2020 07:38:53
Eccentricity: 0.0001763
inclination: 98.2027°
perigee height: 638 km
apogee height: 641 km
right ascension of ascending node: 1.1797°
argument of perigee: 78.7132°
revolutions per day: 14.76695618
mean anomaly at epoch: 281.4276°
orbit number at epoch: 15067

The dashed part of the orbit path shows where the satellite is in the earth's shadow,  

DLR